Hourly Weather Holodniki

Today, 16 April, Friday

Time Temperature Precipitation Wind Pressure Humidity
00:00 +7°C° 0 mm 2 mps 745 mmHg 95%
01:00 +6°C° 0 mm 2 mps 745 mmHg 95%
02:00 +6°C° 0 mm 2 mps 745 mmHg 95%
03:00 +6°C° 0 mm 2 mps 745 mmHg 95%
04:00 +6°C° 0 mm 2 mps 745 mmHg 95%
05:00 +6°C° 0 mm 2 mps 745 mmHg 95%
06:00 +7°C° 0 mm 2 mps 745 mmHg 92%
07:00 +8°C° 0 mm 2 mps 745 mmHg 88%
08:00 +9°C° 0 mm 2 mps 745 mmHg 86%
09:00 +9°C° 0.5 mm 2 mps 745 mmHg 85%
10:00 +9°C° 0.5 mm 3 mps 745 mmHg 84%
11:00 +9°C° 0.5 mm 3 mps 745 mmHg 84%
12:00 +10°C° 0.3 mm 3 mps 745 mmHg 81%
13:00 +10°C° 0.3 mm 4 mps 745 mmHg 78%
14:00 +10°C° 0.3 mm 4 mps 745 mmHg 75%
15:00 +10°C° 0.1 mm 4 mps 746 mmHg 80%
16:00 +8°C° 0.1 mm 4 mps 746 mmHg 84%
17:00 +8°C° 0.1 mm 4 mps 746 mmHg 88%
18:00 +8°C° 0 mm 3 mps 746 mmHg 90%
19:00 +8°C° 0 mm 2 mps 746 mmHg 91%
20:00 +8°C° 0 mm 1 mps 747 mmHg 93%
21:00 +8°C° 0 mm 1 mps 747 mmHg 93%
22:00 +8°C° 0 mm 1 mps 747 mmHg 92%
23:00 +7°C° 0 mm 2 mps 747 mmHg 92%

Tomorrow, 17 April, Saturday

Time Temperature Precipitation Wind Pressure Humidity
00:00 +7°C° 0.1 mm 2 mps 747 mmHg 92%
01:00 +7°C° 0.1 mm 2 mps 747 mmHg 93%
02:00 +6°C° 0.1 mm 2 mps 748 mmHg 93%
03:00 +6°C° 0.1 mm 2 mps 748 mmHg 93%
04:00 +6°C° 0.1 mm 2 mps 748 mmHg 94%
05:00 +6°C° 0.1 mm 2 mps 748 mmHg 94%
06:00 +7°C° 0 mm 2 mps 749 mmHg 90%
07:00 +7°C° 0 mm 2 mps 749 mmHg 86%
08:00 +8°C° 0 mm 2 mps 749 mmHg 83%
09:00 +9°C° 0 mm 2 mps 750 mmHg 76%
10:00 +10°C° 0 mm 2 mps 750 mmHg 68%
11:00 +11°C° 0 mm 3 mps 750 mmHg 61%
12:00 +11°C° 0 mm 3 mps 750 mmHg 60%
13:00 +12°C° 0 mm 2 mps 750 mmHg 59%
14:00 +13°C° 0 mm 2 mps 750 mmHg 58%
15:00 +13°C° 0 mm 2 mps 750 mmHg 59%
16:00 +13°C° 0 mm 1 mps 750 mmHg 60%
17:00 +12°C° 0 mm 0 mps 750 mmHg 60%
18:00 +12°C° 0.2 mm 1 mps 750 mmHg 67%
19:00 +10°C° 0.2 mm 2 mps 750 mmHg 75%
20:00 +9°C° 0.2 mm 2 mps 750 mmHg 82%
21:00 +8°C° 0.2 mm 3 mps 749 mmHg 83%
22:00 +7°C° 0.2 mm 4 mps 749 mmHg 85%
23:00 +7°C° 0.2 mm 4 mps 748 mmHg 86%

Day after tomorrow, 18 April, Sunday

Time Temperature Precipitation Wind Pressure Humidity
00:00 +7°C° 0.3 mm 4 mps 748 mmHg 88%
01:00 +7°C° 0.3 mm 5 mps 747 mmHg 90%
02:00 +7°C° 0.3 mm 5 mps 747 mmHg 92%
03:00 +7°C° 0.7 mm 5 mps 747 mmHg 92%
04:00 +7°C° 0.7 mm 5 mps 747 mmHg 91%
05:00 +6°C° 0.7 mm 5 mps 747 mmHg 91%
06:00 +5°C° 0.1 mm 6 mps 747 mmHg 87%
07:00 +4°C° 0.1 mm 6 mps 748 mmHg 83%
08:00 +4°C° 0.1 mm 7 mps 748 mmHg 79%
09:00 +5°C° 0 mm 7 mps 748 mmHg 75%
10:00 +6°C° 0 mm 7 mps 748 mmHg 71%
11:00 +8°C° 0 mm 7 mps 749 mmHg 67%
12:00 +9°C° 0 mm 7 mps 749 mmHg 62%
13:00 +10°C° 0 mm 6 mps 749 mmHg 57%
14:00 +11°C° 0 mm 6 mps 749 mmHg 52%
15:00 +10°C° 0.1 mm 5 mps 749 mmHg 57%
16:00 +10°C° 0.1 mm 5 mps 749 mmHg 61%
17:00 +10°C° 0.1 mm 4 mps 749 mmHg 66%
18:00 +8°C° 0 mm 4 mps 749 mmHg 73%
19:00 +7°C° 0 mm 3 mps 750 mmHg 79%
20:00 +6°C° 0 mm 2 mps 750 mmHg 86%
21:00 +6°C° 0 mm 2 mps 750 mmHg 88%
22:00 +5°C° 0 mm 2 mps 749 mmHg 89%
23:00 +5°C° 0 mm 2 mps 749 mmHg 91%

19 April, Monday

Time Temperature Precipitation Wind Pressure Humidity
00:00 +4°C° 0 mm 2 mps 749 mmHg 92%
01:00 +3°C° 0 mm 3 mps 749 mmHg 92%
02:00 +3°C° 0 mm 3 mps 749 mmHg 93%
03:00 +3°C° 0 mm 3 mps 749 mmHg 93%
04:00 +3°C° 0 mm 3 mps 749 mmHg 93%
05:00 +4°C° 0 mm 3 mps 748 mmHg 93%
06:00 +4°C° 0.1 mm 3 mps 748 mmHg 92%
07:00 +4°C° 0.1 mm 4 mps 748 mmHg 90%
08:00 +5°C° 0.1 mm 4 mps 748 mmHg 89%
09:00 +5°C° 0.1 mm 3 mps 748 mmHg 88%
10:00 +5°C° 0.1 mm 3 mps 747 mmHg 88%
11:00 +5°C° 0.1 mm 3 mps 747 mmHg 87%
12:00 +7°C° 0.1 mm 3 mps 747 mmHg 85%
13:00 +7°C° 0.1 mm 2 mps 747 mmHg 82%
14:00 +8°C° 0.1 mm 2 mps 747 mmHg 79%
15:00 +9°C° 0.1 mm 1 mps 747 mmHg 79%
16:00 +9°C° 0.1 mm 1 mps 747 mmHg 79%
17:00 +9°C° 0.1 mm 1 mps 746 mmHg 79%
18:00 +8°C° 0 mm 1 mps 746 mmHg 82%
19:00 +7°C° 0 mm 1 mps 746 mmHg 86%
20:00 +6°C° 0 mm 2 mps 746 mmHg 89%
21:00 +6°C° 0 mm 1 mps 746 mmHg 90%
22:00 +5°C° 0 mm 1 mps 745 mmHg 92%
23:00 +5°C° 0 mm 1 mps 745 mmHg 93%

20 April, Tuesday

Time Temperature Precipitation Wind Pressure Humidity
00:00 +4°C° 0 mm 1 mps 745 mmHg 93%
01:00 +3°C° 0 mm 2 mps 744 mmHg 94%
02:00 +3°C° 0 mm 2 mps 743 mmHg 94%
03:00 +3°C° 0 mm 2 mps 743 mmHg 94%
04:00 +3°C° 0 mm 2 mps 742 mmHg 94%
05:00 +3°C° 0 mm 2 mps 741 mmHg 94%
06:00 +3°C° 0 mm 3 mps 741 mmHg 94%
07:00 +4°C° 0 mm 3 mps 740 mmHg 94%
08:00 +5°C° 0 mm 4 mps 739 mmHg 93%
09:00 +6°C° 0 mm 4 mps 739 mmHg 93%
10:00 +6°C° 0 mm 5 mps 738 mmHg 92%
11:00 +6°C° 0 mm 5 mps 737 mmHg 91%
12:00 +6°C° 0.4 mm 5 mps 736 mmHg 92%
13:00 +5°C° 0.4 mm 6 mps 736 mmHg 93%
14:00 +5°C° 0.4 mm 6 mps 735 mmHg 93%
15:00 +5°C° 0.3 mm 6 mps 735 mmHg 93%
16:00 +5°C° 0.3 mm 5 mps 735 mmHg 92%
17:00 +5°C° 0.3 mm 5 mps 734 mmHg 91%
18:00 +5°C° 0.1 mm 5 mps 734 mmHg 92%
19:00 +5°C° 0.1 mm 5 mps 734 mmHg 92%
20:00 +3°C° 0.1 mm 5 mps 735 mmHg 93%
21:00 +3°C° 0.1 mm 5 mps 735 mmHg 93%
22:00 +3°C° 0.1 mm 5 mps 735 mmHg 93%
23:00 +3°C° 0.1 mm 5 mps 735 mmHg 93%

21 April, Wednesday

Time Temperature Precipitation Wind Pressure Humidity
00:00 +5°C° 0.1 mm 5 mps 735 mmHg 92%
01:00 +4°C° 0.1 mm 6 mps 735 mmHg 91%
02:00 +4°C° 0.1 mm 6 mps 736 mmHg 90%
03:00 +4°C° 0.2 mm 6 mps 736 mmHg 90%
04:00 +3°C° 0.2 mm 7 mps 736 mmHg 91%
05:00 +3°C° 0.2 mm 7 mps 736 mmHg 91%
06:00 +3°C° 0.9 mm 7 mps 737 mmHg 92%
07:00 +3°C° 0.9 mm 7 mps 737 mmHg 94%
08:00 +3°C° 0.9 mm 7 mps 738 mmHg 96%
09:00 +3°C° 0.8 mm 7 mps 738 mmHg 95%
10:00 +3°C° 0.8 mm 7 mps 739 mmHg 95%
11:00 +3°C° 0.8 mm 7 mps 740 mmHg 94%
12:00 +4°C° 0.3 mm 7 mps 740 mmHg 89%
13:00 +5°C° 0.3 mm 7 mps 741 mmHg 84%
14:00 +6°C° 0.3 mm 7 mps 742 mmHg 79%
15:00 +8°C° 0.1 mm 7 mps 742 mmHg 76%
16:00 +8°C° 0.1 mm 6 mps 743 mmHg 73%
17:00 +9°C° 0.1 mm 6 mps 744 mmHg 70%
18:00 +8°C° 0 mm 5 mps 744 mmHg 73%
19:00 +7°C° 0 mm 5 mps 745 mmHg 76%
20:00 +6°C° 0 mm 4 mps 746 mmHg 79%
21:00 +5°C° 0 mm 4 mps 746 mmHg 82%
22:00 +4°C° 0 mm 3 mps 747 mmHg 85%
23:00 +3°C° 0 mm 3 mps 747 mmHg 88%
Show more